Location: Waverly
(39.3325°N, 76.6061°W)
Time: 09:01:17
(UTC+00:00)

ARIANE 6 FM1 Upper Stage - Pass Details

Date: 17 December 2025
Orbit: 522 x 610 km, 62.0° (Epoch: 14 January)

Event Time Altitude Azimuth Distance (km) Brightness Sun altitude
Exits shadow 11:21:33 - 250° (WSW) 1,918 4.9 -11.1°
Reaches altitude 10° 11:21:55 10° 252° (WSW) 1,793 4.8 -11.1°
Maximum altitude 11:25:26 29° 313° (NW) 1,004 3.4 -10.4°
Drops below altitude 10° 11:28:55 10° 15° (NNE) 1,772 5.1 -9.8°
Sets 11:31:19 0° 27° (NNE) 2,659 6.2 -9.4°
